Location: Beugnon
(47.6222°N, 3.7850°E)
Time: 13:30:31
(UTC+00:00)

Iridium 4 Rocket - Pass Details

Date: 09 April 2020
Orbit: 586 x 904 km, 86.9° (Epoch: 03 June)

Event Time Altitude Azimuth Distance (km) Brightness Sun altitude
Rises 19:52:01 0° 6° (N) 2,855 6.8 -14.2°
Reaches altitude 10° 19:54:28 10° 18° (NNE) 1,930 5.7 -14.6°
Maximum altitude 19:58:08 29° 79° (E) 1,089 3.9 -15.1°
Enters shadow 19:59:07 26° 104° (ESE) 1,166 3.9 -15.3°
